Home > Time Zones > World Clock > Weather > Egypt > Cairo > Past weeks

Flag for Egypt Weather past 2 weeks in Cairo, Egypt

Now
59 °F

Clear.


Feels Like: 58 °F
Forecast: 51 / 67 °F
Wind: 7 mph from Northwest

Location: Cairo Airport

Current Time: Dec 22, 2014 at 10:49:37 PM

Latest Report: Dec 22, 2014 at 10:00 PM


Visibility: 10 mi

Pressure: 30.18 "Hg

Humidity: 63%

Dew point: 46 °F

Location of CairoLocation

Historic Weather in Cairo — Graph

°F

Cairo temperature yesterday

Maximum temperature yesterday: 68 °F (at 1:30 PM)
Minimum temperature yesterday: 54 °F (at 7:00 AM)
Average temperature yesterday: 61 °F

Past Weeks' High & Low Weather Summary

 TemperatureHumidityPressure
High81 °F (Dec 11, 3:00 PM)100% (Dec 7, 10:00 PM)30.27 "Hg (Dec 7, 10:00 PM)
Low52 °F (Dec 17, 3:30 AM)14% (Dec 11, 4:00 PM)29.80 "Hg (Dec 9, 1:00 AM)
Average63 °F58%30.08 "Hg
* Reported Dec 7 9:00 PM — Dec 22 9:30 PM, Cairo, Weather by CustomWeather, © 2014

Note: Actual official high and low records may vary slightly from our data, if they occured in-between our weather recording intervals... More about our weather records

Advertising

Cairo weather history for previous 24 hours

 ConditionsComfort  
Time TempWeatherWind HumidityBarometerVisibility
9:30 PM
Dec 22
61 °FClear.8 mph72%30.18 "Hg10 mi
9:00 PM61 °FClear.7 mph72%30.18 "Hg10 mi
8:30 PM61 °FClear.7 mph72%30.15 "Hg10 mi
8:00 PM63 °FClear.8 mph68%30.15 "Hg10 mi
7:30 PM63 °FClear.7 mph73%30.15 "Hg10 mi
7:00 PM63 °FClear.5 mph77%30.12 "Hg10 mi
6:30 PM63 °FClear.5 mph77%30.12 "Hg10 mi
6:00 PM63 °FLight rain. Mostly cloudy.8 mph73%30.12 "HgN/A
5:30 PM64 °FMostly cloudy.7 mph68%30.12 "HgN/A
5:00 PM64 °FMostly cloudy.8 mph60%30.09 "HgN/A
4:30 PM63 °FMore clouds than sun.8 mph68%30.09 "HgN/A
4:00 PM63 °FMore clouds than sun.13 mph68%30.09 "Hg4 mi
3:30 PM68 °FPartly sunny.12 mph46%30.09 "HgN/A
3:00 PM68 °FPartly sunny.10 mph46%30.09 "HgN/A
2:30 PM68 °FScattered clouds.12 mph46%30.09 "HgN/A
2:00 PM68 °FScattered clouds.12 mph53%30.09 "HgN/A
1:30 PM68 °FScattered clouds.7 mph53%30.09 "HgN/A
1:00 PM66 °FScattered clouds.6 mph60%30.09 "HgN/A
12:30 PM66 °FScattered clouds.6 mph60%30.12 "HgN/A
12:00 PM66 °FPassing clouds.9 mph60%30.12 "HgN/A
11:30 AM64 °FClear.6 mph64%30.12 "Hg4 mi
11:00 AM63 °FHaze.6 mph64%30.15 "Hg2 mi
10:30 AM63 °FHaze.8 mph64%30.15 "Hg1 mi
10:00 AM61 °FHaze.8 mph68%30.15 "Hg1 mi
9:30 AM61 °FPartly sunny.8 mph68%30.15 "Hg2 mi
9:00 AM61 °FPartly sunny.8 mph68%30.15 "Hg2 mi
8:30 AM59 °FFog.No wind72%30.15 "Hg2 mi
8:00 AM57 °FFog.No wind77%30.15 "Hg2 mi
7:30 AM55 °FFog.No wind77%30.15 "Hg2 mi
7:00 AM54 °FFog.No wind82%30.15 "Hg2 mi
6:30 AM55 °FFog.No wind77%30.15 "Hg2 mi
5:30 AM55 °FClear.No wind77%30.12 "Hg4 mi
5:00 AM55 °FClear.No wind77%30.12 "Hg4 mi
4:30 AM54 °FClear.No wind82%30.15 "Hg4 mi
4:00 AM54 °FClear.2 mph77%30.15 "Hg4 mi
3:30 AM54 °FClear.No wind77%30.15 "Hg4 mi
3:00 AM54 °FClear.No wind77%30.15 "Hg4 mi
2:30 AM54 °FClear.No wind77%30.15 "Hg4 mi
2:00 AM55 °FClear.No wind67%30.18 "Hg4 mi
1:00 AM55 °FClear.No wind77%30.18 "Hg10 mi
12:30 AM55 °FClear.No wind77%30.18 "Hg10 mi
12:00 AM55 °FClear.No wind72%30.18 "Hg10 mi
11:30 PM
Dec 21
55 °FClear.No wind67%30.18 "Hg10 mi
11:00 PM55 °FClear.No wind67%30.18 "Hg10 mi
10:30 PM57 °FClear.No wind67%30.18 "Hg10 mi
10:00 PM59 °FClear.No wind63%30.18 "Hg10 mi
Weather by CustomWeather, © 2014

See weather overviewHow to use our weather pages